Location: Saint-Palais-sur-Mer
(45.6429°N, 1.0859°W)
Time: 08:41:34
(UTC+01:00)

Vanguard 2 - Visible Passes

Search period start: 15 February 2026 00:00
Search period end: 25 February 2026 00:00
Orbit: 553 x 2897 km, 32.9° (Epoch: 13 February)

Date Brightness Start Highest point End Pass type
(mag) Time Alt. Az. Time Alt. Az. Time Alt. Az.
17 Feb 9.8 07:23:37 10° SSW 07:25:32 12° S 07:27:17 10° SSE visible
19 Feb 10.1 05:39:59 10° S 05:41:51 11° SSE 05:43:31 10° SSE visible
20 Feb 9.9 05:50:55 11° SSW 05:53:40 15° S 05:56:30 10° SE visible
21 Feb 9.7 06:02:14 12° SSW 06:05:29 18° S 06:08:51 10° SE visible
22 Feb 10.5 04:12:34 11° SE 04:12:34 11° SE 04:12:49 10° SE visible
22 Feb 9.5 06:13:30 13° SW 06:17:17 20° S 06:20:58 10° SE visible
23 Feb 10.2 04:23:46 15° SE 04:23:46 15° SE 04:25:39 10° SE visible
23 Feb 9.4 06:24:42 12° SW 06:29:05 22° S 06:32:56 10° SE visible
24 Feb 10.0 04:34:57 20° SSE 04:34:57 20° SSE 04:38:02 10° ESE visible
24 Feb 9.3 06:35:53 11° SW 06:40:51 23° S 06:44:48 10° SE visible
